Miscellaneous Local Product
Issued by NWS North Platte, NE

Home | Current Version | Previous Version | Text Only | Print | Product List | Glossary On
Versions: 1 2 3 4 5 6 7 8 9 10 11 12 13 14 15 16 17 18 19 20 21 22 23 24 25 26 27 28 29 30 31 32 33 34 35 36 37 38 39 40 41 42 43 44 45 46 47 48 49 50
671
AXUS43 KLBF 201910
MISLBF


WESTERN AND NORTH CENTRAL NEBRASKA HOURLY WEATHER ROUNDUP
NATIONAL WEATHER SERVICE NORTH PLATTE NE
100 PM CST TUE FEB 20 2018

NOTE: "FAIR" INDICATES FEW OR NO CLOUDS BELOW 12,000 FEET WITH NO
SIGNIFICANT WEATHER AND/OR OBSTRUCTIONS TO VISIBILITY.

NOTE: STATIONS NOT REPORTING VARIABLES SUCH AS SKY/WEATHER OR
PRESSURE ARE PROVIDED BY RAWS AND APRS NETWORKS AND ARE NOT UNDER
NATIONAL WEATHER SERVICE QUALITY CONTROL.

...OBSERVATIONS IN AND NEAR THE EASTERN PANHANDLE OF NEBRASKA...

CITY           SKY/WX    TMP DP  RH WIND       PRES   REMARKS
PINE RIDGE     FAIR       2  -5  72 SW7       30.12R WCI -11
GORDON         FAIR       3  -6  65 W5        30.08S WCI  -6
CHADRON        FAIR       1  -7  68 W5        30.14S WCI  -9
ALLIANCE       FAIR       2  -6  69 W8        30.06S WCI -12
SIDNEY         FAIR       8  -4  58 NW12      30.05S WCI  -7
$$

...OBSERVATIONS IN NORTHERN NEBRASKA AND FAR SOUTHERN SOUTH DAKOTA...

CITY           SKY/WX    TMP DP  RH WIND       PRES   REMARKS
WINNER         FAIR       9   0  67 NW18      30.18S WCI -10
VALENTINE      FAIR       7  -3  64 NW12      30.15S WCI  -8
AINSWORTH      FAIR       8   0  71 NW16      30.14R WCI -10
O`NEILL        FAIR       8   2  74 NW26      30.13F HAZE    WCI -14
THEDFORD       FAIR       9  -1  66 NW13G18   30.12F WCI  -7
BROKEN BOW     FAIR      10  -1  61 NW22      30.11F WCI -10
ORD            FAIR      11   2  67 NW23G31   30.13S WCI  -9
ALBION         PTSUNNY   13   5  69 N18G30    30.15R WCI  -4
$$

...OBSERVATIONS IN SOUTHWEST NEBRASKA AND FAR NORTHEAST COLORADO...

CITY           SKY/WX    TMP DP  RH WIND       PRES   REMARKS
WRAY           FAIR      16   3  57 N14       30.09F WCI   1
HOLYOKE        FAIR      16   1  53 NW15      30.09F WCI   1
IMPERIAL       FAIR      12   0  58 N17       30.10F WCI  -5
OGALLALA       FAIR      10  -1  62 NW15      30.11F WCI  -7
NORTH PLATTE   FAIR      11  -1  58 NW18G24   30.13F WCI  -7
MCCOOK         FAIR      15   2  56 N21G29    30.12F WCI  -2
LEXINGTON      FAIR      15   5  63 N21G26    30.13S WCI  -3
GOTHENBURG       N/A     10  -1  62 NW15        N/A  WCI  -7
CALLAWAY         N/A      9   2  72 NW23        N/A  WCI -11
$$

...OBSERVATIONS IN CENTRAL LINCOLN COUNTY AREA...

CITY           SKY/WX    TMP DP  RH WIND       PRES   REMARKS
N.P. AIRPORT   FAIR      11  -1  58 NW18G24   30.13F WCI  -7
$$

...OBSERVATIONS ACROSS THE ROCKIES AND WESTERN HIGH PLAINS...

CITY           SKY/WX    TMP DP  RH WIND       PRES   REMARKS
RAPID CITY     FAIR       1  -5  75 S3        30.10F
SCOTTSBLUFF    FAIR       9  -3  58 W6        30.08S WCI  -1
CHEYENNE       FAIR      11   4  73 W9        29.86S WCI  -2
DENVER         PTSUNNY    9   2  73 E9        29.94F WCI  -4
BERTHOUD PASS  CLOUDY    -6 -17  59 MISG      29.58R HAZE
COPPER MTN     CLOUDY     5  -6  61 W17G24    29.61S HAZE    WCI -14
MONARCH PASS   FAIR       0  -6  78 W35G45    29.72S WCI -28
ASPEN          FLURRIES  16   9  74 NE6       29.81S WCI   7
LARAMIE        FAIR       0  -7  72 N6        29.80R WCI -12
CASPER         FAIR       7  -2  66 SW21      29.92S WCI -13
$$

...OBSERVATIONS ACROSS THE NORTHERN PLAINS...

CITY           SKY/WX    TMP DP  RH WIND       PRES   REMARKS
BISMARCK       FAIR      11   0  61 W16       30.15S WCI  -6
FARGO          CLOUDY    10   3  73 NW18      30.11S WCI  -8
PIERRE         FAIR       8   2  76 NW16      30.19F WCI -10
SIOUX FALLS    FLURRIES  11   3  70 NW25G31   30.08F WCI -10
$$

...OBSERVATIONS ACROSS THE CENTRAL AND SOUTHERN PLAINS...

CITY           SKY/WX    TMP DP  RH WIND       PRES   REMARKS
OMAHA          FLURRIES  19  13  77 NW15      30.15R WCI   5
GRAND ISLAND   FAIR      16   4  59 N15G28    30.16R WCI   1
KANSAS CITY    CLOUDY    24  21  88 NW15      30.07R WCI  11
WICHITA        CLOUDY    25  20  81 N20G28    30.10F WCI  11
DODGE CITY     FAIR      25   7  46 N17G30    30.10R WCI  12
OKLAHOMA CITY  SLEET     27  25  92 N25G35    30.03S FOG     WCI  12
DALLAS         RAIN      70  67  90 S14       29.87F FOG
AMARILLO       FAIR      34  18  52 N13       29.99F WCI  25
$$




USA.gov is the U.S. government's official web portal to all federal, state and local government web resources and services.